TimeEDT,TemperatureF,Dew PointF,Humidity,Sea Level PressureIn,VisibilityMPH,Wind Direction,Wind SpeedMPH,Gust SpeedMPH,PrecipitationIn,Events,Conditions,WindDirDegrees,DateUTC
12:56 AM,70.0,64.0,81,29.90,10.0,Calm,Calm,-,N/A,,Clear,0,2013-06-02 04:56:00
1:56 AM,68.0,64.0,87,29.88,9.0,SSE,3.5,-,N/A,,Clear,150,2013-06-02 05:56:00
2:56 AM,68.0,64.0,87,29.86,9.0,SE,3.5,-,N/A,,Clear,140,2013-06-02 06:56:00
3:56 AM,66.0,63.0,90,29.86,8.0,SE,3.5,-,N/A,,Clear,140,2013-06-02 07:56:00
4:56 AM,66.0,63.0,90,29.87,9.0,Calm,Calm,-,N/A,,Clear,0,2013-06-02 08:56:00
5:56 AM,66.0,63.0,90,29.86,8.0,SE,3.5,-,N/A,,Clear,140,2013-06-02 09:56:00
6:56 AM,69.1,64.0,84,29.86,10.0,South,3.5,-,N/A,,Clear,170,2013-06-02 10:56:00
7:56 AM,72.0,64.9,78,29.86,10.0,SSE,5.8,-,N/A,,Clear,160,2013-06-02 11:56:00
8:56 AM,75.0,66.0,73,29.85,10.0,South,6.9,-,N/A,,Clear,170,2013-06-02 12:56:00
9:56 AM,79.0,66.9,66,29.83,10.0,SE,9.2,-,N/A,,Clear,140,2013-06-02 13:56:00
10:56 AM,81.0,66.9,62,29.83,10.0,South,9.2,-,N/A,,Partly Cloudy,170,2013-06-02 14:56:00
11:56 AM,82.0,66.9,60,29.83,10.0,South,13.8,-,N/A,,Scattered Clouds,170,2013-06-02 15:56:00
12:56 PM,82.9,66.0,56,29.82,10.0,South,11.5,17.3,N/A,,Scattered Clouds,190,2013-06-02 16:56:00
1:56 PM,84.0,66.9,56,29.79,10.0,SSE,15.0,21.9,N/A,,Scattered Clouds,160,2013-06-02 17:56:00
2:56 PM,82.9,66.9,58,29.78,10.0,South,9.2,-,N/A,,Mostly Cloudy,170,2013-06-02 18:56:00
3:56 PM,82.9,66.9,58,29.78,10.0,South,12.7,-,N/A,,Scattered Clouds,170,2013-06-02 19:56:00
4:29 PM,78.8,66.2,65,29.80,0.5,Variable,4.6,18.4,0.14,Rain-Thunderstorm,Thunderstorms and Rain,0,2013-06-02 20:29:00
4:33 PM,75.2,66.2,73,29.79,8.0,Calm,Calm,-,0.14,Thunderstorm,Thunderstorm,0,2013-06-02 20:33:00
4:43 PM,78.8,68.0,69,29.79,7.0,SSE,10.4,-,0.14,Thunderstorm,Scattered Clouds,160,2013-06-02 20:43:00
4:56 PM,80.1,68.0,67,29.77,10.0,SSE,10.4,19.6,0.14,,Partly Cloudy,160,2013-06-02 20:56:00
5:56 PM,78.1,64.9,64,29.76,10.0,South,8.1,-,N/A,,Scattered Clouds,170,2013-06-02 21:56:00
6:56 PM,77.0,64.9,66,29.78,10.0,South,5.8,-,N/A,,Mostly Cloudy,170,2013-06-02 22:56:00
7:56 PM,75.0,64.9,71,29.79,10.0,SSE,3.5,-,N/A,,Scattered Clouds,160,2013-06-02 23:56:00
7:58 PM,75.2,64.4,69,29.80,10.0,SSE,3.5,-,N/A,Thunderstorm,Scattered Clouds,150,2013-06-02 23:58:00
8:45 PM,73.4,68.0,83,29.82,10.0,West,3.5,-,0.00,Rain,Light Rain,270,2013-06-03 00:45:00
8:56 PM,75.0,66.9,76,29.81,10.0,WSW,3.5,-,0.00,Thunderstorm,Thunderstorm,250,2013-06-03 00:56:00
9:40 PM,73.4,64.4,73,29.82,10.0,Calm,Calm,-,N/A,,Mostly Cloudy,0,2013-06-03 01:40:00
9:56 PM,73.0,64.9,76,29.81,10.0,South,8.1,-,N/A,,Mostly Cloudy,170,2013-06-03 01:56:00
10:56 PM,72.0,64.9,78,29.81,10.0,Calm,Calm,-,N/A,,Scattered Clouds,0,2013-06-03 02:56:00
11:21 PM,71.6,64.4,78,29.83,6.0,Variable,3.5,17.3,0.02,Rain-Thunderstorm,Light Thunderstorms and Rain,0,2013-06-03 03:21:00
11:35 PM,69.8,66.2,88,29.83,2.5,Variable,3.5,-,0.09,Rain-Thunderstorm,Thunderstorms and Rain,0,2013-06-03 03:35:00
11:56 PM,71.1,66.9,87,29.81,10.0,Variable,3.5,-,0.12,Thunderstorm,Mostly Cloudy,0,2013-06-03 03:56:00